Home   Weather   Bengaluru   Past weeks

Flag for India Past Weather in Bengaluru, Karnataka, India — Yesterday and Last 2 Weeks

Now
75 °F

Broken clouds.


Feels Like: 77 °F
Forecast: 62 / 82 °F
Wind: 9 mph from Southeast

Location: Bangalore / Hindustan

Current Time: Jan 21, 2017 at 4:43:27 pm

Latest Report: Jan 21, 2017 at 4:00 pm


Visibility: 4 mi

Pressure: 30.04 "Hg (27.16 "Hg at 876m altitude)

Humidity: 65%

Dew Point: 63 °F

Location of BengaluruLocation

Past Weather in Bengaluru — Graph

°F

Bengaluru Temperature Yesterday

Maximum temperature yesterday: 81 °F (at 2:00 pm)
Minimum temperature yesterday: 59 °F (at 6:00 am)
Average temperature yesterday: 72 °F

High & Low Weather Summary for the Past Weeks

 TemperatureHumidityPressure
High82 °F (Jan 6, 3:30 pm)100% (Jan 7, 6:30 am)30.15 "Hg (Jan 7, 6:30 am)
Low57 °F (Jan 17, 7:00 am)21% (Jan 17, 2:00 pm)29.86 "Hg (Jan 8, 3:00 pm)
Average71 °F60%30.02 "Hg
* Reported Jan 6 3:30 pm — Jan 21 3:30 pm, Bengaluru, Weather by CustomWeather, © 2017

Note: Actual official high and low records may vary slightly from our data, if they occured in-between our weather recording intervals... More about our weather records

Advertising

Bengaluru Weather History for the Previous 24 Hours

Scroll right to see more
 ConditionsComfort  
Time TempWeatherWind HumidityBarometerVisibility
3:30 pm
Sat, Jan 21
77 °FBroken clouds.12 mph61%30.04 "Hg4 mi
3:00 pm77 °FBroken clouds.14 mph61%30.04 "Hg4 mi
2:30 pm77 °FBroken clouds.12 mph61%30.04 "Hg4 mi
2:00 pm77 °FBroken clouds.14 mph61%30.04 "Hg4 mi
1:30 pm75 °FBroken clouds.14 mph65%30.07 "Hg4 mi
1:00 pm75 °FBroken clouds.14 mph65%30.07 "Hg4 mi
12:30 pm75 °FBroken clouds.14 mph65%30.09 "Hg4 mi
12:00 pm75 °FScattered clouds.16 mph69%30.09 "Hg4 mi
11:30 am75 °FScattered clouds.16 mph69%30.12 "Hg4 mi
11:00 am77 °FScattered clouds.16 mph61%30.12 "Hg4 mi
10:30 am73 °FScattered clouds.14 mph69%30.12 "Hg3 mi
10:00 am70 °FFog.9 mph78%30.15 "Hg2 mi
9:30 am70 °FFog.9 mph78%30.12 "Hg2 mi
9:00 am70 °FFog.6 mph73%30.12 "Hg2 mi
8:30 am68 °FFog.6 mph78%30.12 "Hg2 mi
8:00 am68 °FFog.7 mph78%30.09 "Hg1 mi
7:30 am68 °FFog.6 mph78%30.09 "Hg1 mi
7:00 am66 °FFog.7 mph78%30.09 "Hg2 mi
6:30 am66 °FFog.5 mph78%30.07 "Hg2 mi
6:00 am66 °FPassing clouds.6 mph78%30.07 "Hg4 mi
5:30 am68 °FPassing clouds.6 mph73%30.04 "Hg4 mi
11:30 pm
Fri, Jan 20
68 °FPassing clouds.7 mph73%30.09 "Hg5 mi
10:30 pm70 °FPassing clouds.12 mph69%30.09 "Hg5 mi
9:30 pm72 °FPassing clouds.9 mph69%30.09 "Hg5 mi
8:30 pm72 °FPassing clouds.9 mph69%30.07 "Hg5 mi
7:30 pm73 °FPassing clouds.9 mph65%30.07 "Hg5 mi
6:30 pm75 °FScattered clouds.12 mph61%30.04 "Hg5 mi
5:30 pm77 °FScattered clouds.14 mph54%30.01 "Hg5 mi
5:00 pm79 °FScattered clouds.12 mph51%29.98 "Hg5 mi
4:30 pm81 °FScattered clouds.9 mph48%29.98 "Hg5 mi
4:00 pm81 °FScattered clouds.12 mph48%29.98 "Hg5 mi
Weather by CustomWeather, © 2017

See weather overviewHow to use our weather pages